This is the latest recevied weather packets stored in our database for station/object KE5WTH-14. If no packets are shown the sender has not sent any weather packets the latest 10 day(s).
| Time | Temp. | Humidity | Pressure | Rain* | Wind** | Luminosity | Snow |
|---|---|---|---|---|---|---|---|
| 1778175065 | 20.56° C | 52% | 1018.8 hPa | 0 mm | - | 935 W/m² | - |
| 1778175011 | 20.56° C | 51% | 1019 hPa | 0 mm | - | 923 W/m² | - |
| 1778174945 | 20.56° C | 53% | 1018.9 hPa | 0 mm | - | 916 W/m² | - |
| 1778174886 | 20.56° C | 53% | 1018.9 hPa | 0 mm | - | 893 W/m² | - |
| 1778174826 | 20.56° C | 56% | 1019.1 hPa | 0 mm | - | 877 W/m² | - |
| 1778174760 | 20.56° C | 52% | 1018.9 hPa | 0 mm | - | 862 W/m² | - |
| 1778174687 | 20.56° C | 50% | 1019 hPa | 0 mm | - | 849 W/m² | - |
| 1778174626 | 20.56° C | 53% | 1019 hPa | 0 mm | - | 844 W/m² | - |
| 1778174563 | 20.56° C | 54% | 1019.1 hPa | 0 mm | - | 802 W/m² | - |
| 1778174502 | 20.56° C | 52% | 1019.1 hPa | 0 mm | - | 800 W/m² | - |
| 1778174441 | 20.56° C | 52% | 1019.1 hPa | 0 mm | - | 805 W/m² | - |
| 1778174377 | 20.56° C | 53% | 1019.1 hPa | 0 mm | - | 783 W/m² | - |
| 1778174318 | 20.56° C | 52% | 1019.2 hPa | 0 mm | - | 761 W/m² | - |
| 1778174255 | 20° C | 50% | 1019.2 hPa | 0 mm | - | 765 W/m² | - |
| 1778174194 | 20° C | 52% | 1019.2 hPa | 0 mm | - | 756 W/m² | - |
| 1778174135 | 20° C | 52% | 1019.2 hPa | 0 mm | - | 753 W/m² | - |
| 1778174075 | 20° C | 55% | 1019.2 hPa | 0 mm | - | 746 W/m² | - |
| 1778174016 | 20° C | 53% | 1019.2 hPa | 0 mm | - | 740 W/m² | - |
| 1778173954 | 20° C | 53% | 1019.2 hPa | 0 mm | - | 661 W/m² | - |
| 1778173893 | 20° C | 53% | 1019.1 hPa | 0 mm | - | 501 W/m² | - |
| 1778173833 | 20° C | 56% | 1019.2 hPa | 0 mm | - | 280 W/m² | - |
| 1778173772 | 20° C | 54% | 1019.2 hPa | 0 mm | - | 135 W/m² | - |
| 1778173732 | 20° C | 53% | 1019.2 hPa | 0 mm | - | 107 W/m² | - |
| 1778173702 | 20° C | 52% | 1019.3 hPa | 0 mm | - | 99 W/m² | - |
| 1778173671 | 20° C | 54% | 1019.3 hPa | 0 mm | - | 97 W/m² | - |
* Rain latest hour (hover to see other rain measurements)
** Current wind speed in m/s (hover to see current wind gust speed)